カタログに戻る

USA 269

運用中軍事GEO
NORAD 41724·PAYLOAD·🇺🇸 United States

打ち上げ Jul 28, 2016 から Cape Canaveral Space Force Station

Loading…

TLE

最新Source: Mike McCants

元期: Sep 15, 2026, 03:49 UTC

1 41724U 16047A   26258.15905519  .00000000  00000-0  00000-0 0    07
2 41724   4.0905  41.4762 0009170 213.3346 146.6185  1.00270000  5300

AllMySatでUSA 269をリアルタイム追跡

Download on the App Store